Time,TemperatureF,DewpointF,PressureIn,WindDirection,WindDirectionDegrees,WindSpeedMPH,WindSpeedGustMPH,Humidity,HourlyPrecipIn,Conditions,Clouds,dailyrainin,SolarRadiationWatts/m^2,SoftwareType,DateUTC
2013-11-20 00:02:00,34.0,21.0,-100.00,South,180,5.0,11.0,59,0.00,,,0.00,0.000000,,2013-11-20 05:02:00,
2013-11-20 00:43:00,33.0,20.0,-100.00,South,178,5.0,13.0,59,0.00,,,0.00,0.000000,,2013-11-20 05:43:00,
2013-11-20 00:53:00,33.0,20.0,-100.00,South,178,5.0,13.0,59,0.00,,,0.00,0.000000,,2013-11-20 05:53:00,
2013-11-20 01:02:00,33.0,20.0,-100.00,South,178,5.0,13.0,59,0.00,,,0.00,0.000000,,2013-11-20 06:02:00,
2013-11-20 01:42:00,33.0,20.0,-100.00,SSE,159,7.0,16.0,58,0.00,,,0.00,0.000000,,2013-11-20 06:42:00,
2013-11-20 01:52:00,33.0,20.0,-100.00,SSE,159,7.0,16.0,58,0.00,,,0.00,0.000000,,2013-11-20 06:52:00,
2013-11-20 02:01:00,33.0,20.0,-100.00,SSE,159,7.0,16.0,58,0.00,,,0.00,0.000000,,2013-11-20 07:01:00,
2013-11-20 02:42:00,32.0,18.0,-100.00,SSE,151,7.0,16.0,55,0.00,,,0.00,0.000000,,2013-11-20 07:42:00,
2013-11-20 02:52:00,32.0,18.0,-100.00,SSE,151,7.0,16.0,55,0.00,,,0.00,0.000000,,2013-11-20 07:52:00,
2013-11-20 03:02:00,32.0,18.0,-100.00,SSE,151,7.0,16.0,55,0.00,,,0.00,0.000000,,2013-11-20 08:02:00,
2013-11-20 03:42:00,31.0,19.0,-100.00,SE,139,6.0,17.0,61,0.00,,,0.00,0.000000,,2013-11-20 08:42:00,
2013-11-20 03:52:00,31.0,19.0,-100.00,SE,139,6.0,17.0,61,0.00,,,0.00,0.000000,,2013-11-20 08:52:00,
2013-11-20 04:02:00,31.0,19.0,-100.00,SE,139,6.0,17.0,61,0.00,,,0.00,0.000000,,2013-11-20 09:02:00,
2013-11-20 04:44:00,29.0,19.0,-100.00,SSE,148,5.0,20.0,67,0.00,,,0.00,0.000000,,2013-11-20 09:44:00,
2013-11-20 04:54:00,29.0,19.0,-100.00,SSE,148,5.0,20.0,67,0.00,,,0.00,0.000000,,2013-11-20 09:54:00,
2013-11-20 05:03:00,29.0,19.0,-100.00,SSE,148,5.0,20.0,67,0.00,,,0.00,0.000000,,2013-11-20 10:03:00,
2013-11-20 05:43:00,29.0,21.0,-100.00,SSE,151,7.0,15.0,72,0.00,,,0.00,0.000000,,2013-11-20 10:43:00,
2013-11-20 05:53:00,29.0,21.0,-100.00,SSE,151,7.0,15.0,72,0.00,,,0.00,0.000000,,2013-11-20 10:53:00,
2013-11-20 06:03:00,29.0,21.0,-100.00,SSE,151,7.0,15.0,72,0.00,,,0.00,0.000000,,2013-11-20 11:03:00,
2013-11-20 06:43:00,29.0,21.0,-100.00,SE,129,5.0,16.0,73,0.00,,,0.00,0.000000,,2013-11-20 11:43:00,
2013-11-20 06:52:00,29.0,21.0,-100.00,SE,129,5.0,16.0,73,0.00,,,0.00,0.000000,,2013-11-20 11:52:00,
2013-11-20 07:02:00,29.0,21.0,-100.00,SE,129,5.0,16.0,73,0.00,,,0.00,0.000000,,2013-11-20 12:02:00,
2013-11-20 07:42:00,28.0,21.0,-100.00,SE,125,6.0,14.0,76,0.00,,,0.00,0.000000,,2013-11-20 12:42:00,
2013-11-20 07:52:00,28.0,21.0,-100.00,SE,125,6.0,14.0,76,0.00,,,0.00,0.000000,,2013-11-20 12:52:00,
2013-11-20 08:02:00,28.0,21.0,-100.00,SE,125,6.0,14.0,76,0.00,,,0.00,0.000000,,2013-11-20 13:02:00,
2013-11-20 08:42:00,30.0,23.0,-100.00,SE,146,4.0,15.0,76,0.00,,,0.00,27.000000,,2013-11-20 13:42:00,
2013-11-20 08:52:00,30.0,23.0,-100.00,SE,146,4.0,15.0,76,0.00,,,0.00,27.000000,,2013-11-20 13:52:00,
2013-11-20 09:02:00,30.0,23.0,-100.00,SE,146,4.0,15.0,76,0.00,,,0.00,27.000000,,2013-11-20 14:02:00,
2013-11-20 09:42:00,33.0,24.0,-100.00,SE,125,8.0,19.0,69,0.00,,,0.00,183.000000,,2013-11-20 14:42:00,
2013-11-20 09:52:00,33.0,24.0,-100.00,SE,125,8.0,19.0,69,0.00,,,0.00,183.000000,,2013-11-20 14:52:00,
2013-11-20 10:02:00,33.0,24.0,-100.00,SE,125,8.0,19.0,69,0.00,,,0.00,183.000000,,2013-11-20 15:02:00,
2013-11-20 10:43:00,38.0,24.0,-100.00,South,171,6.0,16.0,57,0.00,,,0.00,343.000000,,2013-11-20 15:43:00,
2013-11-20 10:54:00,38.0,24.0,-100.00,South,171,6.0,16.0,57,0.00,,,0.00,343.000000,,2013-11-20 15:54:00,
2013-11-20 11:03:00,38.0,24.0,-100.00,South,171,6.0,16.0,57,0.00,,,0.00,343.000000,,2013-11-20 16:03:00,
2013-11-20 11:43:00,41.0,23.0,-100.00,SE,135,5.0,15.0,48,0.00,,,0.00,485.000000,,2013-11-20 16:43:00,
2013-11-20 11:52:00,41.0,23.0,-100.00,SE,135,5.0,15.0,48,0.00,,,0.00,485.000000,,2013-11-20 16:52:00,
2013-11-20 12:02:00,41.0,23.0,-100.00,SE,135,5.0,15.0,48,0.00,,,0.00,485.000000,,2013-11-20 17:02:00,
2013-11-20 12:42:00,47.0,21.0,-100.00,South,190,5.0,14.0,36,0.00,,,0.00,574.000000,,2013-11-20 17:42:00,
2013-11-20 12:52:00,47.0,21.0,-100.00,South,190,5.0,14.0,36,0.00,,,0.00,574.000000,,2013-11-20 17:52:00,
2013-11-20 13:02:00,47.0,21.0,-100.00,South,190,5.0,14.0,36,0.00,,,0.00,574.000000,,2013-11-20 18:02:00,
2013-11-20 13:43:00,49.0,25.0,-100.00,SSE,155,4.0,12.0,38,0.00,,,0.00,600.000000,,2013-11-20 18:43:00,
2013-11-20 13:52:00,49.0,25.0,-100.00,SSE,155,4.0,12.0,38,0.00,,,0.00,600.000000,,2013-11-20 18:52:00,
2013-11-20 14:02:00,49.0,25.0,-100.00,SSE,155,4.0,12.0,38,0.00,,,0.00,600.000000,,2013-11-20 19:02:00,
2013-11-20 14:42:00,49.0,23.0,-100.00,SSW,209,4.0,11.0,35,0.00,,,0.00,563.000000,,2013-11-20 19:42:00,
2013-11-20 14:52:00,49.0,23.0,-100.00,SSW,209,4.0,11.0,35,0.00,,,0.00,563.000000,,2013-11-20 19:52:00,
2013-11-20 15:01:00,49.0,23.0,-100.00,SSW,209,4.0,11.0,35,0.00,,,0.00,563.000000,,2013-11-20 20:01:00,
2013-11-20 17:42:00,40.0,20.0,-100.00,SE,140,4.0,7.0,45,0.00,,,0.00,48.000000,,2013-11-20 22:42:00,
2013-11-20 17:53:00,40.0,20.0,-100.00,SE,140,4.0,7.0,45,0.00,,,0.00,48.000000,,2013-11-20 22:53:00,
2013-11-20 18:02:00,40.0,20.0,-100.00,SE,140,4.0,7.0,45,0.00,,,0.00,48.000000,,2013-11-20 23:02:00,
2013-11-20 18:43:00,37.0,23.0,-100.00,South,179,5.0,9.0,56,0.00,,,0.00,3.000000,,2013-11-20 23:43:00,
2013-11-20 18:53:00,37.0,23.0,-100.00,South,179,5.0,9.0,56,0.00,,,0.00,3.000000,,2013-11-20 23:53:00,
2013-11-20 19:02:00,37.0,23.0,-100.00,South,179,5.0,9.0,56,0.00,,,0.00,3.000000,,2013-11-21 00:02:00,
2013-11-20 19:42:00,35.0,24.0,-100.00,SE,139,7.0,15.0,63,0.00,,,0.00,0.000000,,2013-11-21 00:42:00,
2013-11-20 19:52:00,35.0,24.0,-100.00,SE,139,7.0,15.0,63,0.00,,,0.00,0.000000,,2013-11-21 00:52:00,
2013-11-20 20:02:00,35.0,24.0,-100.00,SE,139,7.0,15.0,63,0.00,,,0.00,0.000000,,2013-11-21 01:02:00,
2013-11-20 20:42:00,34.0,24.0,-100.00,SSE,157,6.0,16.0,67,0.00,,,0.00,0.000000,,2013-11-21 01:42:00,
2013-11-20 20:52:00,34.0,24.0,-100.00,SSE,157,6.0,16.0,67,0.00,,,0.00,0.000000,,2013-11-21 01:52:00,
2013-11-20 21:01:00,34.0,24.0,-100.00,SSE,157,6.0,16.0,67,0.00,,,0.00,0.000000,,2013-11-21 02:01:00,
2013-11-20 21:52:00,34.0,24.0,-100.00,South,171,6.0,19.0,67,0.00,,,0.00,0.000000,,2013-11-21 02:52:00,
2013-11-20 22:02:00,34.0,24.0,-100.00,South,171,6.0,19.0,67,0.00,,,0.00,0.000000,,2013-11-21 03:02:00,
2013-11-20 22:43:00,34.0,24.0,-100.00,SSE,160,5.0,21.0,66,0.00,,,0.00,0.000000,,2013-11-21 03:43:00,
2013-11-20 22:54:00,34.0,24.0,-100.00,SSE,160,5.0,21.0,66,0.00,,,0.00,0.000000,,2013-11-21 03:54:00,
2013-11-20 23:03:00,34.0,24.0,-100.00,SSE,160,5.0,21.0,66,0.00,,,0.00,0.000000,,2013-11-21 04:03:00,
2013-11-20 23:43:00,35.0,23.0,-100.00,SSE,157,7.0,15.0,62,0.00,,,0.00,0.000000,,2013-11-21 04:43:00,
2013-11-20 23:53:00,35.0,23.0,-100.00,SSE,157,7.0,15.0,62,0.00,,,0.00,0.000000,,2013-11-21 04:53:00,